Home   Weather   35°57'N, 87°07'W   Past weeks
Flag for USA

Past Weather in 35°57'N, 87°07'W, USA — Yesterday and Last 2 Weeks

Now
64 °F

Light rain. Overcast.


Feels Like: 64 °F
Forecast: 67 / 48 °F
Wind: 10 mph from Northwest

Location: Nashville International Airport

Current Time: Oct 16, 2019 at 4:39:45 am

Latest Report: Oct 16, 2019 at 3:53 am


Visibility: 10 mi

Pressure: 29.79 "Hg

Humidity: 90%

Dew Point: 61 °F

Location of 35°57'N, 87°07'WLocation

Past Weather in 35°57'N, 87°07'W — Graph

°F

35°57'N, 87°07'W Temperature Yesterday

Maximum temperature yesterday: 78 °F (at 4:53 pm)
Minimum temperature yesterday: 53 °F (at 1:53 am)
Average temperature yesterday: 67 °F

High & Low Weather Summary for the Past Weeks

 TemperatureHumidityPressure
High97 °F (Oct 2, 1:53 pm)93% (Oct 7, 4:00 am)30.23 "Hg (Oct 7, 4:00 am)
Low38 °F (Oct 13, 6:53 am)25% (Oct 13, 3:53 pm)29.80 "Hg (Oct 16, 1:53 am)
Average68 °F64%30.07 "Hg
* Reported Oct 1 3:53 am — Oct 16 3:24 am, 35°57'N, 87°07'W. Weather by CustomWeather, © 2019

Note: Actual official high and low records may vary slightly from our data, if they occured in-between our weather recording intervals... More about our weather records

Advertising

35°57'N, 87°07'W Weather History for the Previous 24 Hours

Scroll right to see more
 ConditionsComfort  
Time TempWeatherWind HumidityBarometerVisibility
3:24 am
Wed, Oct 16
65 °FLight rain. Mostly cloudy.7 mph87%29.80 "Hg8 mi
3:04 am66 °FLight rain. Overcast.13 mph90%29.81 "Hg8 mi
2:40 am67 °FHeavy rain. Fog.6 mph87%29.80 "Hg2 mi
2:07 am66 °FLight rain. Mostly cloudy.No wind90%29.81 "Hg10 mi
1:53 am66 °FThundershowers. Overcast.3 mph87%29.80 "Hg7 mi
1:26 am68 °FLight rain. Mostly cloudy.3 mph78%29.83 "Hg8 mi
12:53 am68 °FMostly cloudy.7 mph78%29.81 "Hg10 mi
11:53 pm
Tue, Oct 15
69 °FPassing clouds.8 mph73%29.84 "Hg10 mi
10:53 pm69 °FMostly cloudy.12 mph73%29.85 "Hg10 mi
9:53 pm70 °FOvercast.8 mph71%29.86 "Hg10 mi
9:43 pm70 °FMostly cloudy.8 mph71%29.88 "Hg10 mi
8:53 pm71 °FPassing clouds.7 mph68%29.88 "Hg10 mi
7:53 pm70 °FPartly cloudy.9 mph71%29.88 "Hg10 mi
6:53 pm73 °FPassing clouds.7 mph64%29.88 "Hg10 mi
5:53 pm75 °FPassing clouds.7 mph58%29.87 "Hg10 mi
4:53 pm78 °FPartly sunny.15 mph50%29.88 "Hg10 mi
3:53 pm77 °FBroken clouds.8 mph52%29.90 "Hg10 mi
2:53 pm77 °FBroken clouds.12 mph50%29.93 "Hg10 mi
1:53 pm77 °FBroken clouds.12 mph48%29.95 "Hg10 mi
12:53 pm77 °FPartly sunny.7 mph48%29.99 "Hg10 mi
11:53 am74 °FBroken clouds.7 mph52%30.01 "Hg10 mi
10:53 am72 °FBroken clouds.6 mph52%30.03 "Hg10 mi
9:53 am68 °FBroken clouds.5 mph55%30.05 "Hg10 mi
8:53 am65 °FBroken clouds.5 mph61%30.05 "Hg10 mi
7:53 am58 °FScattered clouds.3 mph75%30.05 "Hg10 mi
7:05 am57 °FBroken clouds.6 mph78%30.06 "Hg10 mi
6:53 am58 °FPartly sunny.5 mph75%30.06 "Hg10 mi
5:53 am57 °FOvercast.No wind78%30.06 "Hg10 mi
4:53 am55 °FMostly cloudy.6 mph83%30.06 "Hg10 mi
Weather by CustomWeather, © 2019

See weather overview